Tracking 32579 objects as of 16-Dec-2025
HD Live streaming from Space Station
objects crossing your sky now

STARLINK-32473

Track STARLINK-32473 now!
10-day predictions
STARLINK-32473 is classified as:


NORAD ID: 62049
Int'l Code: 2024-216T
Perigee: 489.3 km
Apogee: 491.0 km
Inclination: 43.0 °
Period: 94.3 minutes
Semi major axis: 6861 km
RCS: Unknown
Launch date: November 21, 2024
Source: United States (US)
Launch site: AIR FORCE EASTERN TEST RANGE (AFETR)
Your satellite tracking list
Your tracking list is empty




NASA's NSSDC Master Catalog

Two Line Element Set (TLE):
1 62049U 24216T   25349.79075310  .00013298  00000-0  49160-3 0  9997
2 62049  43.0013  10.2028 0001245 243.3771 116.6954 15.27599480 59888
Source of the keplerian elements: AFSPC